Location: Knowlton
(51.2333°N, 1.2667°E)
Time: 03:30:48
(UTC+00:00)

Cosmos 1869 - Pass Details

Date: 18 April 2021
Orbit: 518 x 563 km, 82.5° (Epoch: 06 May)

Event Time Altitude Azimuth Distance (km) Brightness Sun altitude
Exits shadow 21:18:38 44° 101° (E) 759 3.6 -19.1°
Maximum altitude 21:18:47 45° 94° (E) 756 3.7 -19.1°
Drops below altitude 10° 21:22:35 10° 22° (NNE) 1,809 6.3 -19.5°
Sets 21:24:47 0° 16° (NNE) 2,698 7.3 -19.7°
